FW9994 Weather Reports


time (UTC)temp
F
wind
direction
speed
knots
gust
knots
rain 1hr
in
rain 24hr
in
rain mn
in
humidity
%
barometer
mb
20260506050921 48 0.0 0.0 0.01 0.02 0.02 91 1008.4
20260506044901 48 0.0 0.0 0.02 0.01 0.02 90 1008.4
20260506044403 48 0.0 0.0 0.02 0.01 0.02 90 1008.4
20260506043847 48 0.0 0.0 0.02 0.01 0.02 90 1008.3
20260506043345 48 0.0 0.0 0.02 0.01 0.02 90 1008.3
20260506042832 48 0.0 0.0 0.02 0.01 0.02 90 1008.3
20260506042332 48 0.0 0.0 0.02 0.01 0.02 90 1008.2
20260506041331 48 0.0 0.0 0.02 0.01 0.02 90 1008.1
20260506040830 48 0.0 0.0 0.01 0.01 0.01 90 1008.2
20260506035829 48 0.0 0.0 0.01 0.00 0.01 90 1008.2
20260506034828 48 0.0 0.0 0.00 0.00 0.00 89 1008.2
20260506034303 48 0.0 0.0 0.00 0.00 0.00 89 1008.3
20260506033802 48 0.0 0.0 0.00 0.00 0.00 89 1008.4
20260506032204 48 0.0 0.0 0.00 0.00 0.00 89 1008.4
20260506031703 48 0.0 0.0 0.00 0.00 0.00 89 1008.3
20260506031203 48 0.0 0.0 0.00 0.00 0.00 89 1008.4
20260506030703 48 0.0 0.0 0.00 0.00 0.00 89 1008.4
20260506030201 48 0.0 0.0 0.00 0.00 0.00 88 1008.4
20260506025655 48 0.0 0.0 0.00 0.00 0.00 88 1008.6
20260506025136 48 0.0 0.0 0.00 0.00 0.00 88 1008.6
20260506024633 49 0.0 0.0 0.00 0.00 0.00 88 1008.6
20260506023625 49 0.0 0.0 0.00 0.00 0.00 87 1008.6
20260506023108 49 0.0 0.0 0.00 0.00 0.00 87 1008.6
20260506022604 49 0.0 0.0 0.00 0.00 0.00 87 1008.7
20260506021530 49 0.0 0.0 0.00 0.00 0.00 87 1008.7
20260506021032 49 0.0 0.0 0.00 0.00 0.00 87 1008.7
20260506020530 49 0.0 0.0 0.00 0.00 0.00 87 1008.7
20260506020034 49 0.0 0.0 0.00 0.01 0.00 87 1008.8
20260506015534 49 0.0 0.0 0.00 0.01 0.00 86 1008.8
20260506015031 49 0.0 0.0 0.00 0.01 0.00 86 1008.8
20260506014530 49 0.0 0.0 0.00 0.01 0.00 86 1008.8
20260506014029 49 0.0 0.0 0.00 0.01 0.00 86 1008.8
20260506013530 49 0.0 0.0 0.00 0.01 0.00 86 1008.8
20260506013029 49 0.0 0.0 0.00 0.01 0.00 86 1008.9
20260506012530 49 0.0 0.0 0.00 0.01 0.00 86 1008.9
20260506012030 49 0.0 0.0 0.00 0.01 0.00 86 1008.9
20260506011007 49 0.0 0.0 0.00 0.01 0.00 85 1009.0
20260506010504 49 0.0 0.0 0.00 0.01 0.00 85 1009.0
20260506010003 49 0.0 0.0 0.00 0.01 0.00 85 1009.0
20260506005457 49 0.0 0.0 0.00 0.01 0.00 85 1009.0
20260506004953 50 0.0 0.0 0.00 0.01 0.00 85 1009.1
20260506004432 50 0.0 0.0 0.00 0.01 0.00 85 1009.2
20260506003931 50 0.0 0.0 0.00 0.01 0.00 85 1009.2
20260506003432 50 0.0 0.0 0.00 0.01 0.00 85 1009.1
20260506002931 50 0.0 0.0 0.00 0.01 0.00 85 1009.1
20260506002424 50 0.0 0.0 0.00 0.01 0.00 84 1009.3
20260506001925 50 0.0 0.0 0.00 0.01 0.00 84 1009.3
20260506001427 50 0.0 0.0 0.00 0.02 0.00 84 1009.3
20260506000916 50 0.0 0.0 0.00 0.02 0.00 84 1009.3
20260506000404 50 0.0 0.0 0.00 0.02 0.00 84 1009.3
20260505235903 50 0.0 0.0 0.00 0.02 0.00 84 1009.4
20260505235403 50 0.0 0.0 0.00 0.02 0.00 84 1009.4
20260505234832 50 0.0 0.0 0.00 0.02 0.00 84 1009.4
20260505234329 50 0.0 0.0 0.00 0.02 0.00 84 1009.5
20260505233328 50 0.0 0.0 0.00 0.03 0.00 83 1009.5
20260505232831 50 0.0 0.0 0.00 0.04 0.00 83 1009.6
20260505232329 50 0.0 0.0 0.00 0.05 0.00 83 1009.6
20260505231830 50 0.0 0.0 0.00 0.06 0.00 83 1009.6
20260505231328 50 0.0 0.0 0.00 0.08 0.00 83 1009.6
20260505230830 50 0.0 0.0 0.00 0.10 0.00 83 1009.7
20260505230328 50 0.0 0.0 0.00 0.13 0.00 84 1009.7
20260505225329 50 0.0 0.0 0.00 0.16 0.00 84 1009.8
20260505224829 50 0.0 0.0 0.00 0.17 0.00 83 1009.8
20260505223830 50 0.0 0.0 0.00 0.17 0.00 83 1009.9
20260505223330 50 0.0 0.0 0.00 0.18 0.00 83 1009.9
20260505222830 51 0.0 0.0 0.00 0.19 0.00 83 1010.0
20260505222306 51 0.0 0.0 0.00 0.20 0.00 83 1009.9
20260505221230 51 0.0 0.0 0.00 0.25 0.00 83 1010.0
20260505220729 51 0.0 0.0 0.00 0.26 0.00 83 1010.1
20260505220231 51 0.0 0.0 0.00 0.28 0.00 84 1010.1
20260505215728 51 0.0 0.0 0.00 0.29 0.28 84 1010.2
20260505215230 51 0.0 0.0 0.00 0.30 0.28 84 1010.2
20260505214232 51 0.0 0.0 0.00 0.31 0.28 84 1010.3
20260505213728 51 0.0 0.0 0.00 0.32 0.28 84 1010.3
20260505213230 51 0.0 0.0 0.00 0.32 0.28 84 1010.3
20260505212730 51 0.0 0.0 0.00 0.32 0.28 84 1010.4
20260505211729 51 0.0 0.0 0.00 0.32 0.28 84 1010.3
20260505211229 51 0.0 0.0 0.00 0.32 0.28 84 1010.4
20260505210725 51 0.0 0.0 0.00 0.32 0.28 84 1010.5
20260505210208 51 0.0 0.0 0.00 0.32 0.28 84 1010.4
20260505205704 51 0.0 0.0 0.00 0.32 0.28 84 1010.5
20260505205201 51 0.0 0.0 0.00 0.32 0.28 84 1010.5
20260505204134 51 0.0 0.0 0.00 0.32 0.28 84 1010.5
20260505203631 51 0.0 0.0 0.00 0.32 0.28 84 1010.5
20260505202629 51 0.0 0.0 0.00 0.32 0.28 84 1010.5
20260505202129 51 0.0 0.0 0.00 0.32 0.28 84 1010.6
20260505201630 52 0.0 0.0 0.00 0.32 0.28 84 1010.6
20260505201131 52 0.0 0.0 0.00 0.32 0.28 84 1010.5
20260505200630 52 0.0 0.0 0.00 0.32 0.28 84 1010.5
20260505200128 52 0.0 0.0 0.00 0.32 0.28 84 1010.5
20260505195623 52 0.0 0.0 0.00 0.32 0.28 84 1010.5
20260505195102 52 0.0 0.0 0.00 0.32 0.28 84 1010.5
20260505194602 52 0.0 0.0 0.00 0.32 0.28 84 1010.4
20260505194102 52 0.0 0.0 0.00 0.32 0.28 84 1010.3
20260505193601 52 0.0 0.0 0.00 0.32 0.28 84 1010.4
20260505193053 52 0.0 0.0 0.00 0.32 0.28 84 1010.3
20260505192545 52 0.0 0.0 0.00 0.32 0.28 84 1010.3
20260505192031 52 0.0 0.0 0.00 0.32 0.28 84 1010.3
20260505191529 52 0.0 0.0 0.00 0.32 0.28 83 1010.2
20260505191029 52 0.0 0.0 0.00 0.32 0.28 84 1010.2
20260505190503 52 0.0 0.0 0.00 0.32 0.28 83 1010.2
20260505185506 52 0.0 0.0 0.00 0.32 0.28 83 1010.2
20260505184500 53 0.0 0.0 0.00 0.32 0.28 83 1010.1
20260505183957 53 0.0 0.0 0.00 0.32 0.28 83 1010.0
20260505183442 53 0.0 0.0 0.00 0.32 0.28 83 1010.0
20260505182940 53 0.0 0.0 0.00 0.32 0.28 83 1009.9
20260505182434 53 0.0 0.0 0.00 0.32 0.28 83 1010.0
20260505181930 53 0.0 0.0 0.00 0.32 0.28 83 1009.9
20260505180930 53 0.0 0.0 0.00 0.32 0.28 82 1009.9
20260505180429 53 0.0 0.0 0.00 0.32 0.28 82 1009.9
20260505175429 53 0.0 0.0 0.00 0.32 0.28 83 1009.9
20260505174906 53 0.0 0.0 0.00 0.32 0.28 83 1009.9
20260505173343 53 0.0 0.0 0.00 0.32 0.28 82 1009.8
20260505172830 54 0.0 0.0 0.00 0.32 0.28 82 1009.9
20260505172333 54 0.0 0.0 0.00 0.32 0.28 82 1009.9
20260505171329 54 0.0 0.0 0.00 0.32 0.28 82 1010.0
20260505170830 54 0.0 0.0 0.00 0.32 0.28 82 1010.0
20260505170329 54 0.0 0.0 0.00 0.32 0.28 83 1010.0
20260505165834 54 0.0 0.0 0.00 0.32 0.28 83 1010.1
20260505165314 54 0.0 0.0 0.00 0.32 0.28 83 1010.1
20260505164809 54 0.0 0.0 0.00 0.32 0.28 83 1010.2
20260505163756 53 0.0 0.0 0.00 0.32 0.28 83 1010.3
20260505162243 53 0.0 0.0 0.00 0.32 0.28 84 1010.4
20260505161759 53 0.0 0.0 0.00 0.32 0.28 84 1010.3
20260505161244 53 0.0 0.0 0.00 0.32 0.28 83 1010.2
20260505160742 53 0.0 0.0 0.00 0.32 0.28 84 1010.4
20260505160238 53 0.0 0.0 0.00 0.32 0.28 84 1010.5
20260505153339 53 0.0 0.0 0.00 0.32 0.28 84 1010.7
20260505152832 53 0.0 0.0 0.00 0.32 0.28 84 1010.7
20260505152330 53 0.0 0.0 0.00 0.32 0.28 84 1010.6
20260505151828 53 0.0 0.0 0.00 0.32 0.28 85 1010.7
20260505151327 53 0.0 0.0 0.00 0.32 0.28 85 1010.8
20260505150831 53 0.0 0.0 0.00 0.32 0.28 85 1010.7
20260505150324 53 0.0 0.0 0.00 0.32 0.28 85 1010.7
20260505140229 53 0.0 0.0 0.00 0.32 0.28 85 1011.0
20260505130203 53 0.0 0.0 0.00 0.32 0.28 85 1011.4
20260505124628 53 0.0 0.0 0.00 0.32 0.28 86 1011.5
20260505124129 53 0.0 0.0 0.00 0.32 0.28 86 1011.5
20260505123629 53 0.0 0.0 0.00 0.32 0.28 87 1011.5
20260505123129 53 0.0 0.0 0.00 0.32 0.28 87 1011.5
20260505122629 53 0.0 0.0 0.00 0.32 0.28 88 1011.5
20260505122126 53 0.0 0.0 0.00 0.32 0.28 88 1011.6
20260505121626 53 0.0 0.0 0.00 0.32 0.28 88 1011.6
20260505121119 53 0.0 0.0 0.00 0.32 0.28 89 1011.7
20260505120602 53 0.0 0.0 0.00 0.32 0.28 89 1011.6
20260505115603 52 0.0 0.0 0.00 0.32 0.28 89 1011.8
20260505115101 52 0.0 0.0 0.00 0.32 0.28 90 1011.8
20260505114559 52 0.0 0.0 0.00 0.32 0.28 90 1011.9
20260505114054 52 0.0 0.0 0.00 0.32 0.28 90 1011.9
20260505113554 51 0.0 0.0 0.00 0.32 0.28 91 1011.8
20260505113050 51 0.0 0.0 0.00 0.32 0.28 91 1011.7
20260505112550 51 0.0 0.0 0.00 0.32 0.28 91 1011.8
20260505112055 51 0.0 0.0 0.00 0.32 0.28 91 1011.9
20260505111039 51 0.0 0.0 0.00 0.32 0.28 91 1011.8
20260505102001 50 0.0 0.0 0.00 0.32 0.28 92 1011.9
20260505101451 50 0.0 0.0 0.00 0.32 0.28 92 1011.9
20260505100940 50 0.0 0.0 0.00 0.32 0.28 92 1011.8
20260505100443 50 0.0 0.0 0.00 0.32 0.28 92 1012.0
20260505095939 49 0.0 0.0 0.00 0.32 0.28 92 1011.9
20260505095431 49 0.0 0.0 0.00 0.32 0.28 92 1011.9
20260505094930 49 0.0 0.0 0.00 0.32 0.28 93 1012.0
20260505094427 49 0.0 0.0 0.00 0.32 0.28 93 1012.0
20260505093925 49 0.0 0.0 0.00 0.32 0.28 92 1012.0
20260505093420 49 0.0 0.0 0.00 0.32 0.28 92 1012.0
20260505092902 49 0.0 0.0 0.00 0.32 0.28 93 1012.1
20260505091400 49 0.0 0.0 0.00 0.32 0.28 93 1012.2
20260505090334 49 0.0 0.0 0.00 0.32 0.28 93 1012.1
20260505085831 49 0.0 0.0 0.00 0.32 0.28 93 1012.2
20260505085331 49 0.0 0.0 0.00 0.32 0.28 93 1012.1
20260505084329 49 0.0 0.0 0.00 0.32 0.28 93 1012.1
20260505083805 49 0.0 0.0 0.00 0.32 0.28 93 1012.2
20260505082802 49 0.0 0.0 0.00 0.32 0.28 93 1012.2
20260505081241 49 0.0 0.0 0.00 0.32 0.28 93 1012.3
20260505080731 49 0.0 0.0 0.00 0.32 0.28 93 1012.3
20260505080228 49 0.0 0.0 0.00 0.32 0.28 93 1012.2
20260505075721 49 0.0 0.0 0.00 0.32 0.28 93 1012.2
20260505074715 49 0.0 0.0 0.00 0.32 0.28 93 1012.1
20260505073713 49 0.0 0.0 0.00 0.32 0.28 93 1012.2
20260505073153 49 0.0 0.0 0.00 0.32 0.28 93 1012.2
20260505072650 49 0.0 0.0 0.00 0.32 0.28 93 1012.1
20260505072130 49 0.0 0.0 0.00 0.32 0.28 93 1012.2
20260505071629 49 0.0 0.0 0.00 0.32 0.28 93 1012.1
20260505071129 48 0.0 0.0 0.00 0.32 0.28 93 1012.2
20260505070629 48 0.0 0.0 0.00 0.32 0.28 93 1012.3
20260505065623 48 0.0 0.0 0.00 0.32 0.28 93 1012.3
20260505065116 48 0.0 0.0 0.00 0.32 0.28 93 1012.4
20260505064609 48 0.0 0.0 0.00 0.32 0.28 93 1012.4
20260505064103 48 0.0 0.0 0.00 0.32 0.28 93 1012.4
20260505063546 48 0.0 0.0 0.00 0.32 0.28 93 1012.5
20260505063032 49 0.0 0.0 0.00 0.32 0.28 93 1012.5
20260505062532 49 0.0 0.0 0.00 0.32 0.28 93 1012.6
20260505061529 49 0.0 0.0 0.00 0.32 0.28 93 1012.5
20260505061027 49 0.0 0.0 0.00 0.32 0.28 93 1012.5
20260505060004 49 0.0 0.0 0.00 0.32 0.28 93 1012.6
20260505055504 49 0.0 0.0 0.00 0.32 0.28 93 1012.6